Vinton, IA

3:55 AM CDT on March 23, 2017 (GMT -0500)
Vinton-Veterans Memorial

Weather History for KVTI - October, 2013

Change the Weather History Date:

Wednesday, October 30, 2013

  Actual Average Record
Temperature  
Mean Temperature 54 °F -  
Max Temperature 59 °F 57 °F 84 °F (1950)
Min Temperature 52 °F 37 °F 14 °F (1988)
Degree Days  
Heating Degree Days 10    
Growing Degree Days 4 (Base 50)    
Moisture  
Dew Point 51 °F    
Average Humidity 89    
Maximum Humidity 94    
Minimum Humidity 71    
Precipitation  
Precipitation 0.40 in - - ()
Sea Level Pressure  
Sea Level Pressure 29.91 in    
Wind  
Wind Speed 8 mph (SE)    
Max Wind Speed 16 mph    
Max Gust Speed 21 mph    
Visibility 6 miles    
Events Fog , Rain    
Averages and records for this station are not official NWS values.
T = Trace of Precipitation, MM = Missing Value Source: NWS Daily Summary

Daily Weather History Graph

Daily Weather History Graph

Search for Another Location

Airport or City:

Trip Planner

Search our weather history database for the weather conditions in past years. The results will help you decide how hot, cold, wet, or windy it might be!

Date:

Astronomy

Oct. 30, 2013 Rise Set
Actual Time 7:38 AM CDT 6:03 PM CDT
Civil Twilight 7:09 AM CDT 6:32 PM CDT
Nautical Twilight 6:36 AM CDT 7:05 PM CDT
Astronomical Twilight 6:04 AM CDT 7:38 PM CDT
Moon 3:23 AM CDT (10/30) 3:53 PM CDT (10/30)
Length of Visible Light 11h 22m
Length of Day
10h 24m
Waning Crescent, 17% of the Moon is Illuminated
Oct 30
Waning Crescent
Nov 3
New
Nov 9
First Quarter
Nov 17
Full
Nov 25
Last Quarter

Hourly Weather History & Observations

Time (CDT) Temp. Dew Point Humidity Pressure Visibility Wind Dir Wind Speed Gust Speed Precip Events Conditions
12:15 AM 52.0 °F 42.8 °F 71% 30.05 in 10.0 mi SE 8.1 mph - N/A   Overcast
12:35 AM 52.0 °F 43.2 °F 72% 30.05 in 10.0 mi SE 8.1 mph - N/A   Overcast
12:55 AM 52.0 °F 43.7 °F 73% 30.04 in 10.0 mi SE 8.1 mph - N/A   Overcast
1:15 AM 52.0 °F 44.1 °F 74% 30.04 in 10.0 mi SE 8.1 mph - N/A   Overcast
1:35 AM 52.0 °F 44.4 °F 75% 30.05 in 10.0 mi SE 6.9 mph - N/A   Overcast
1:55 AM 52.0 °F 44.6 °F 76% 30.05 in 10.0 mi SE 6.9 mph - N/A   Overcast
2:15 AM 52.0 °F 45.0 °F 77% 30.04 in 10.0 mi SE 6.9 mph - N/A   Overcast
2:35 AM 52.0 °F 45.1 °F 77% 30.03 in 7.0 mi ESE 6.9 mph - N/A   Overcast
2:55 AM 52.0 °F 45.5 °F 79% 30.04 in 7.0 mi SE 4.6 mph - N/A   Overcast
3:15 AM 52.0 °F 45.9 °F 80% 30.03 in 7.0 mi ESE 5.8 mph - N/A   Overcast
3:35 AM 52.0 °F 46.6 °F 82% 30.03 in 7.0 mi SE 6.9 mph - N/A   Overcast
3:55 AM 52.0 °F 47.3 °F 84% 30.02 in 5.0 mi SE 6.9 mph - N/A   Haze
4:15 AM 52.0 °F 47.8 °F 86% 30.02 in 4.0 mi SE 5.8 mph - N/A   Overcast
4:35 AM 52.0 °F 48.2 °F 87% 30.02 in 4.0 mi SE 6.9 mph - N/A   Overcast
4:55 AM 52.0 °F 48.4 °F 88% 30.00 in 3.0 mi SE 9.2 mph - N/A   Overcast
5:15 AM 52.0 °F 48.6 °F 88% 30.00 in 3.0 mi SE 6.9 mph - N/A   Overcast
5:35 AM 52.0 °F 48.9 °F 89% 30.00 in 3.0 mi SSE 8.1 mph - N/A   Overcast
5:55 AM 52.0 °F 49.1 °F 90% 29.99 in 2.5 mi ESE 8.1 mph - N/A   Overcast
6:15 AM 52.0 °F 49.5 °F 91% 29.99 in 1.5 mi SE 5.8 mph - N/A   Overcast
6:35 AM 52.0 °F 49.6 °F 92% 29.99 in 1.8 mi SE 9.2 mph - N/A   Overcast
6:55 AM 52.0 °F 50.0 °F 93% 29.98 in 1.8 mi SE 9.2 mph - N/A   Overcast
7:15 AM 52.0 °F 50.0 °F 93% 29.98 in 2.0 mi SE 10.4 mph - N/A   Overcast
7:35 AM 52.0 °F 50.0 °F 93% 29.97 in 1.8 mi SSE 8.1 mph - N/A   Overcast
7:55 AM 52.0 °F 50.0 °F 93% 29.96 in 1.2 mi SSE 6.9 mph - N/A   Overcast
8:15 AM 52.0 °F 50.0 °F 93% 29.98 in 1.5 mi SSE 8.1 mph - N/A   Overcast
8:35 AM 52.0 °F 50.2 °F 94% 29.98 in 1.5 mi SE 8.1 mph - N/A   Overcast
8:55 AM 53.2 °F 51.4 °F 94% 29.99 in 0.5 mi SSE 8.1 mph - N/A Fog Fog
9:15 AM 54.5 °F 52.7 °F 94% 29.98 in 0.5 mi SSE 8.1 mph - N/A Fog Fog
9:35 AM 54.5 °F 52.7 °F 94% 29.97 in 0.5 mi SE 8.1 mph - N/A Fog Fog
9:55 AM 54.5 °F 52.7 °F 94% 29.95 in 0.5 mi SE 5.8 mph - N/A Fog Fog
10:15 AM 54.5 °F 52.7 °F 94% 29.93 in 0.5 mi ESE 8.1 mph - N/A Fog Fog
10:35 AM 54.5 °F 52.7 °F 94% 29.94 in 0.5 mi East 6.9 mph - N/A Fog Fog
10:55 AM 54.5 °F 52.7 °F 94% 29.96 in 0.2 mi ESE 4.6 mph - N/A Fog Fog
11:15 AM 54.5 °F 52.7 °F 94% 29.96 in 0.2 mi ENE 3.5 mph - N/A Fog Fog
11:35 AM 54.5 °F 52.7 °F 94% 29.96 in 0.2 mi East 4.6 mph - N/A Fog Fog
11:55 AM 54.5 °F 52.9 °F 94% 29.97 in 0.2 mi NE 4.6 mph - N/A Fog Fog
12:15 PM 54.5 °F 52.9 °F 94% 29.96 in 0.2 mi ENE 9.2 mph - 0.04 in Rain Heavy Rain
12:35 PM 54.5 °F 52.9 °F 94% 29.99 in 0.8 mi North 4.6 mph - 0.11 in Rain Heavy Rain
12:55 PM 54.5 °F 52.9 °F 94% 29.99 in 1.0 mi West 4.6 mph - 0.25 in Rain Heavy Rain
1:15 PM 54.5 °F 52.9 °F 94% 29.99 in 1.0 mi SSE 8.1 mph - 0.06 in Rain Heavy Rain
1:35 PM 54.5 °F 52.9 °F 94% 29.95 in 1.5 mi East 6.9 mph - 0.12 in Rain Rain
1:55 PM 54.5 °F 52.9 °F 94% 29.94 in 4.0 mi East 5.8 mph - 0.13 in Rain Light Rain
2:15 PM 54.5 °F 52.9 °F 94% 29.92 in 4.0 mi ESE 10.4 mph - 0.02 in Rain Rain
2:35 PM 54.5 °F 52.9 °F 94% 29.90 in 7.0 mi ESE 12.7 mph - 0.02 in Rain Light Rain
2:55 PM 54.5 °F 52.9 °F 94% 29.87 in 7.0 mi ESE 13.8 mph - 0.02 in Rain Light Rain
3:15 PM 55.6 °F 53.8 °F 94% 29.83 in 10.0 mi ESE 13.8 mph - N/A   Scattered Clouds
3:35 PM 57.2 °F 54.9 °F 92% 29.83 in 10.0 mi ESE 16.1 mph 20.7 mph N/A   Clear
3:55 PM 57.2 °F 54.1 °F 89% 29.81 in 10.0 mi ESE 13.8 mph - N/A   Clear
4:15 PM 57.2 °F 54.1 °F 89% 29.80 in 10.0 mi SE 12.7 mph - N/A   Clear
4:35 PM 57.2 °F 54.5 °F 91% 29.80 in 10.0 mi SSE 11.5 mph - N/A   Clear
4:55 PM 57.2 °F 54.5 °F 91% 29.79 in 10.0 mi SSE 12.7 mph 18.4 mph N/A   Scattered Clouds
5:15 PM 57.2 °F 54.5 °F 91% 29.79 in 10.0 mi SSE 10.4 mph - N/A   Scattered Clouds
5:35 PM 56.3 °F 54.0 °F 92% 29.78 in 10.0 mi SSE 10.4 mph - N/A   Mostly Cloudy
5:55 PM 56.5 °F 54.1 °F 92% 29.77 in 5.0 mi South 11.5 mph 18.4 mph N/A   Overcast
6:15 PM 57.2 °F 54.7 °F 91% 29.77 in 10.0 mi South 12.7 mph 18.4 mph N/A   Scattered Clouds
7:55 PM 57.2 °F 54.0 °F 89% 29.75 in 10.0 mi South 11.5 mph 17.3 mph N/A   Mostly Cloudy
8:15 PM 57.2 °F 53.8 °F 88% 29.75 in 10.0 mi South 10.4 mph 18.4 mph N/A   Overcast
8:35 PM 57.2 °F 53.8 °F 88% 29.75 in 10.0 mi South 8.1 mph 16.1 mph N/A   Mostly Cloudy
8:55 PM 57.2 °F 53.6 °F 88% 29.73 in 10.0 mi South 12.7 mph 17.3 mph N/A   Scattered Clouds
9:15 PM 57.2 °F 53.6 °F 88% 29.73 in 10.0 mi SSE 12.7 mph 16.1 mph N/A   Mostly Cloudy
9:35 PM 57.2 °F 53.6 °F 88% 29.73 in 10.0 mi SSE 9.2 mph 18.4 mph N/A   Mostly Cloudy
9:55 PM 57.2 °F 54.0 °F 89% 29.72 in 10.0 mi South 9.2 mph - N/A   Overcast
10:15 PM 57.2 °F 54.0 °F 89% 29.72 in 10.0 mi SSE 12.7 mph - N/A   Overcast
10:35 PM 57.2 °F 54.5 °F 91% 29.71 in 7.0 mi SSE 11.5 mph - N/A Rain Light Rain
10:55 PM 57.2 °F 54.7 °F 91% 29.70 in 10.0 mi South 6.9 mph - N/A   Overcast
11:15 PM 57.2 °F 54.7 °F 91% 29.69 in 10.0 mi South 8.1 mph - N/A   Overcast
11:35 PM 57.7 °F 55.4 °F 92% 29.68 in 10.0 mi SSE 12.7 mph - N/A   Overcast
11:55 PM 59.5 °F 57.2 °F 92% 29.66 in 10.0 mi SSE 12.7 mph 17.3 mph N/A   Overcast